Regional Weather Roundup
Issued by NWS

Home | Current Version | Previous Version | Graphics & Text | Print | Product List | Glossary On
Versions: 1 2 3 4 5 6 7 8 9 10 11 12 13 14 15 16 17 18 19 20 21 22 23 24 25 26 27 28 29 30 31 32 33 34 35 36 37 38 39 40 41 42 43 44 45 46 47 48 49 50
000
ASUS45 KSLC 281110
RWRUT

UTAH REGIONAL WEATHER ROUNDUP
NATIONAL WEATHER SERVICE SALT LAKE CITY UT
400 AM MST SUN DEC 28 2014

UTZ001>011-023>025-281200-

NORTHERN UTAH

CITY           SKY/WX    TMP DP  RH WIND       PRES   REMARKS
BRIGHAM CITY   CLOUDY    29  13  50 S10       30.15F WCI  20
HILL AFB       CLOUDY    25  12  57 S12       30.12F WCI  14
LOGAN          CLOUDY    25  16  68 CALM      30.11F
OGDEN          CLOUDY    26  14  60 S10       30.13F WCI  16
PROVO AIRPORT  MOCLDY    23  12  63 S10       30.19F WCI  12
SALT LAKE CITY CLOUDY    26  15  63 S14       30.13F WCI  14
VERNAL         PTCLDY    11   7  84 CALM      30.15F
WENDOVER       PTCLDY    23  14  68 NE8       30.13F WCI  14
HEBER CITY     CLOUDY    14  10  85 CALM      30.13F
WEST JORDAN    CLOUDY    25  19  80 S14       30.14F WCI  13

$$

UTZ012>022-026-027-281200-

SOUTHERN/CENTRAL UTAH

CITY           SKY/WX    TMP DP  RH WIND       PRES   REMARKS
BLANDING       CLOUDY    15  10  80 N5        30.28F WCI   7
BRYCE CANYON   PTCLDY     0  -5  79 SW3       30.13F
CEDAR CITY     CLOUDY    13   6  74 NE7       30.17F WCI   3
DELTA          CLOUDY    19  16  86 CALM      30.18F
MILFORD        MOCLDY    21  11  65 S16       30.17F WCI   7
MOAB/CYNLANDS  CLOUDY    17  12  80 CALM      30.20F
PRICE          CLOUDY    16   6  65 NE5       30.15F WCI   9
ST GEORGE      PTSUNNY   25   5  42 CALM      30.32S
KANAB          CLEAR     14  10  85 NE3       30.27F

$$

REGIONAL REPORTS     COLORADO/ARIZONA

CITY           SKY/WX    TMP DP  RH WIND       PRES   REMARKS
CRAIG, CO      CLOUDY    12   5  73 CALM      30.10F
GRAND JUNCTION MOCLDY    17  10  74 SE8       30.21F WCI   7
RIFLE          CLOUDY    14   7  73 CALM      30.20F
MONTROSE       MOCLDY    14   7  73 SE6       30.22F WCI   5
CORTEZ         CLEAR      5   1  83 E6        30.23F WCI  -6
PAGE, AZ       CLEAR     25   8  48 CALM      30.24F
GRAND CANYON   PTCLDY     6   2  83 CALM      30.21F
KINGMAN        PTCLDY    21  12  68 CALM      30.26F
FLAGSTAFF      CLEAR      9   4  80 CALM      30.18F

$$

REGIONAL REPORTS    NEVADA/IDAHO/WYOMING

CITY           SKY/WX    TMP DP  RH WIND       PRES   REMARKS
LAS VEGAS, NV  MOCLDY    35  12  38 SW5       30.26F WCI  31
ELY            CLOUDY    14   7  73 S10       30.18F WCI   1
ELKO           CLOUDY    28  18  66 W3        30.13F
POCATELLO, ID  CLOUDY    27  20  75 S20       30.01F WCI  13
BURLEY         LGT SNOW  28  25  88 S20       30.01F VSB 1   WCI  15
EVANSTON, WY   CLOUDY    15   6  67 SW10      30.01F WCI   2
ROCK SPRINGS   LGT SNOW  14  10  84 W12       29.99F FOG     WCI   0

$$



USA.gov is the U.S. government's official web portal to all federal, state and local government web resources and services.